Location: Unspecified
(0.0000°N, 0.0000°E)
Time: 22:03:12
(UTC+00:00)

Vanguard 1 Rocket - All Passes

Search period start: 18 October 2017 00:00
Search period end: 28 October 2017 00:00
Orbit: 655 x 4222 km, 34.3° (Epoch: 18 October)

Date Brightness Start Highest point End Pass type
(mag) Time Alt. Az. Time Alt. Az. Time Alt. Az.
18 Oct - 01:00:31 10° SW 01:22:24 39° SSE 01:35:57 10° E visible
18 Oct - 03:34:26 10° SW 03:53:50 89° NNW 04:03:15 10° NE visible
18 Oct - 06:12:23 10° W 06:19:49 19° NW 06:24:56 10° N daylight
18 Oct - 13:41:13 10° N 13:46:40 25° NE 13:55:12 10° E daylight
18 Oct - 16:03:47 10° WNW 16:12:43 74° SW 16:30:57 10° SE daylight
18 Oct - 18:32:02 10° WSW 18:44:43 32° SSW 19:04:37 10° SE visible
18 Oct - 21:08:10 10° SW 21:24:31 22° S 21:42:21 10° SE visible
18 Oct - 23:44:51 10° SW 00:06:12 31° SSE 00:21:53 10° ESE visible
19 Oct - 02:18:31 10° SW 02:40:44 64° SSE 02:52:18 10° ENE visible
19 Oct - 04:54:24 10° WSW 05:08:38 41° NW 05:16:19 10° NNE visible
19 Oct - 14:53:26 10° NW 15:00:42 71° NE 15:15:21 10° ESE daylight
19 Oct - 17:19:10 10° W 17:29:46 41° SSW 17:48:51 10° SE daylight
19 Oct - 19:51:57 10° SW 20:06:08 23° S 20:24:24 10° SE visible
19 Oct - 22:29:03 10° SW 22:48:33 25° SSE 23:05:47 10° ESE visible
20 Oct - 01:02:56 10° SW 01:26:18 48° SSE 01:40:16 10° E visible
20 Oct - 03:37:24 10° WSW 03:56:52 71° NW 04:06:32 10° NE visible
20 Oct - 06:18:20 10° WNW 06:23:00 13° NW 06:26:41 10° NNW daylight
20 Oct - 13:43:54 10° NNW 13:49:39 35° NE 13:59:31 10° ESE daylight
20 Oct - 16:07:31 10° WNW 16:16:13 56° SSW 16:33:29 10° SE daylight
20 Oct - 18:37:03 10° WSW 18:49:11 26° SSW 19:07:16 10° SE visible
20 Oct - 21:13:10 10° SW 21:29:54 22° S 21:47:40 10° SE visible
20 Oct - 23:47:36 10° SW 00:10:30 36° SSE 00:26:47 10° E visible
21 Oct - 02:21:04 10° SW 02:44:03 80° SE 02:55:54 10° ENE visible
21 Oct - 04:58:35 10° W 05:11:32 31° NW 05:19:05 10° NNE visible
21 Oct - 12:35:55 10° NNE 12:38:53 14° NE 12:42:35 10° ENE daylight
21 Oct - 14:56:47 10° NW 15:03:54 86° SW 15:18:22 10° SE daylight
21 Oct - 17:23:38 10° W 17:33:51 32° SSW 17:51:09 10° SE daylight
21 Oct - 19:57:26 10° SW 20:11:19 21° S 20:28:35 10° SE visible
21 Oct - 22:32:30 10° SW 22:53:22 29° SSE 23:11:18 10° ESE visible
22 Oct - 01:05:21 10° SW 01:29:55 58° SSE 01:44:16 10° ENE visible
22 Oct - 03:40:41 10° WSW 03:59:47 56° NW 04:09:37 10° NE visible
22 Oct - 13:46:50 10° NW 13:52:39 51° NE 14:03:18 10° ESE daylight
22 Oct - 16:11:30 10° W 16:19:58 42° SSW 16:35:51 10° SE daylight
22 Oct - 18:42:24 10° SW 18:53:56 22° S 19:10:16 10° SE visible
22 Oct - 21:17:31 10° SW 21:35:09 23° SSE 21:53:24 10° ESE visible
22 Oct - 23:50:12 10° SW 00:14:28 44° SSE 00:31:19 10° E visible
23 Oct - 02:23:48 10° SW 02:47:08 85° NW 02:59:16 10° NE visible
23 Oct - 05:03:24 10° W 05:14:32 23° NW 05:21:38 10° N visible
23 Oct - 12:37:53 10° N 12:42:01 21° NE 12:47:50 10° E daylight
23 Oct - 15:00:22 10° WNW 15:07:20 63° SSW 15:21:07 10° SE daylight
23 Oct - 17:28:30 10° WSW 17:38:11 25° SSW 17:53:29 10° SSE daylight
23 Oct - 20:02:37 10° SW 20:16:37 20° S 20:33:34 10° SE visible
23 Oct - 22:35:33 10° SW 22:57:48 34° SSE 23:16:31 10° E visible
24 Oct - 01:07:50 10° SW 01:33:16 71° SE 01:47:59 10° ENE visible
24 Oct - 03:44:23 10° WSW 04:02:37 44° NW 04:12:34 10° NNE visible
24 Oct - 13:50:02 10° NW 13:55:48 76° NE 14:06:40 10° ESE daylight
24 Oct - 16:15:51 10° W 16:23:57 32° SSW 16:38:06 10° SE daylight
24 Oct - 18:47:54 10° SW 18:58:55 19° S 19:13:49 10° SE visible
24 Oct - 21:21:17 10° SSW 21:40:06 26° SSE 21:59:12 10° ESE visible
24 Oct - 23:52:43 10° SW 00:18:07 53° SSE 00:35:29 10° ENE visible
25 Oct - 02:26:47 10° WSW 02:50:03 70° NW 03:02:27 10° NE visible
25 Oct - 05:09:00 10° WNW 05:17:44 17° NW 05:23:53 10° N visible
25 Oct - 12:40:29 10° NNW 12:45:05 33° NE 12:52:10 10° ESE daylight
25 Oct - 15:04:14 10° W 15:10:59 45° SSW 15:23:38 10° SE daylight
25 Oct - 17:33:46 10° SW 17:42:44 20° S 17:55:59 10° SSE daylight
25 Oct - 20:07:15 10° SSW 20:21:53 21° SSE 20:39:14 10° SE visible
25 Oct - 22:38:20 10° SW 23:01:51 40° SSE 23:21:19 10° E visible
26 Oct - 01:10:27 10° SW 01:36:22 85° SE 01:51:26 10° NE visible
26 Oct - 03:48:35 10° W 04:05:31 35° NW 04:15:21 10° NNE visible
26 Oct - 11:32:48 10° NNE 11:34:26 11° NE 11:36:14 10° ENE daylight
26 Oct - 13:53:28 10° WNW 13:59:08 74° SW 14:09:42 10° SE daylight
26 Oct - 16:20:36 10° WSW 16:28:09 24° SSW 16:40:14 10° SSE daylight
26 Oct - 18:53:18 10° SW 19:04:04 18° S 19:18:10 10° SE visible
26 Oct - 21:24:34 10° SSW 21:44:40 30° SSE 22:04:47 10° ESE visible
26 Oct - 23:55:14 10° SW 00:21:29 64° SE 00:39:20 10° ENE visible
27 Oct - 02:30:07 10° WSW 02:52:52 57° NW 03:05:29 10° NE visible
27 Oct - 05:15:45 10° WNW 05:21:11 13° NW 05:25:33 10° NNW visible
27 Oct - 12:43:25 10° NW 12:48:13 52° NE 12:55:58 10° ESE daylight
27 Oct - 15:08:27 10° W 15:14:52 32° SSW 15:25:56 10° SE daylight
27 Oct - 17:39:23 10° SW 17:47:33 17° S 17:58:47 10° SSE visible
27 Oct - 20:11:15 10° SSW 20:26:55 23° SSE 20:45:16 10° ESE visible
27 Oct - 22:40:59 10° SW 23:05:32 48° SSE 23:25:43 10° E visible
